Location: Ottawa
(45.4167°N, 75.7000°W)
Time: 03:58:20
(UTC-04:00)

Tiangong 1 - Pass Details

Date: 08 October 2017
Orbit: 292 x 319 km, 42.8° (Epoch: 22 October)

Event Time Altitude Azimuth Distance (km) Brightness Sun altitude
Rises 20:32:23 0° 263° (W) 2,031 5.9 -22.3°
Reaches altitude 10° 20:34:24 10° 257° (WSW) 1,196 4.4 -22.6°
Enters shadow 20:35:21 19° 249° (WSW) 825 3.3 -22.8°
